This is the latest recevied weather packets stored in our database for station/object KF7IOR. If no packets are shown the sender has not sent any weather packets the latest 10 day(s).
| Time | Temp. | Humidity | Pressure | Rain* | Wind** | Luminosity | Snow |
|---|---|---|---|---|---|---|---|
| 1777512935 | 22.22° C | 41% | 1019.1 hPa | 0 mm | - | 206 W/m² | - |
| 1777509045 | 22.78° C | 41% | 1019.4 hPa | 0 mm | - | 394 W/m² | - |
| 1777506635 | 22.22° C | 43% | 1019.7 hPa | 0 mm | - | 503 W/m² | - |
| 1777505735 | 22.22° C | 43% | 1019.9 hPa | 0 mm | - | 540 W/m² | - |
| 1777504235 | 22.22° C | 40% | 1020.2 hPa | 0 mm | - | 603 W/m² | - |
| 1777501534 | 21.11° C | 43% | 1021 hPa | 0 mm | - | 691 W/m² | - |
| 1777500949 | 20.56° C | 45% | 1021.1 hPa | 0 mm | - | 707 W/m² | - |
| 1777500050 | 20° C | 44% | 1021.3 hPa | 0 mm | - | 731 W/m² | - |
| 1777495547 | 18.33° C | 47% | 1021.9 hPa | 0 mm | - | 796 W/m² | - |
| 1777494650 | 17.78° C | 48% | 1022 hPa | 0 mm | - | 800 W/m² | - |
| 1777494033 | 17.78° C | 49% | 1022.1 hPa | 0 mm | - | 802 W/m² | - |
| 1777493134 | 17.22° C | 51% | 1022.3 hPa | 0 mm | - | 802 W/m² | - |
| 1777491946 | 16.67° C | 51% | 1022.5 hPa | 0 mm | - | 795 W/m² | - |
| 1777489838 | 15° C | 54% | 1022.8 hPa | 0 mm | - | 768 W/m² | - |
| 1777489246 | 15.56° C | 54% | 1023 hPa | 0 mm | - | 759 W/m² | - |
| 1777488641 | 15.56° C | 53% | 1023.2 hPa | 0 mm | - | 751 W/m² | - |
| 1777487135 | 14.44° C | 60% | 1023.4 hPa | 0 mm | - | 715 W/m² | - |
| 1777486539 | 13.89° C | 63% | 1023.6 hPa | 0 mm | - | 693 W/m² | - |
| 1777486235 | 13.89° C | 64% | 1023.6 hPa | 0 mm | - | 691 W/m² | - |
| 1777485935 | 13.33° C | 61% | 1023.7 hPa | 0 mm | - | 679 W/m² | - |
| 1777485335 | 13.89° C | 62% | 1023.7 hPa | 0 mm | - | 670 W/m² | - |
| 1777483854 | 12.22° C | 66% | 1023.8 hPa | 0 mm | - | 612 W/m² | - |
| 1777483534 | 12.78° C | 67% | 1023.8 hPa | 0 mm | - | 601 W/m² | - |
| 1777480835 | 11.67° C | 69% | 1024.2 hPa | 0 mm | - | 504 W/m² | - |
| 1777478442 | 10° C | 73% | 1024.5 hPa | 0 mm | - | 371 W/m² | - |
* Rain latest hour (hover to see other rain measurements)
** Current wind speed in m/s (hover to see current wind gust speed)